Index of /20260502/WXO-DD/model_rdps/10km/18/054
Name Last modified Size Description
Parent Directory -
20260502T18Z_MSC_RDPS_AbsoluteVorticity_IsbL-0250_RLatLon0.09_PT054H.grib2 2026-05-02 20:56 614K
20260502T18Z_MSC_RDPS_AbsoluteVorticity_IsbL-0500_RLatLon0.09_PT054H.grib2 2026-05-02 20:56 566K
20260502T18Z_MSC_RDPS_AbsoluteVorticity_IsbL-0700_RLatLon0.09_PT054H.grib2 2026-05-02 20:56 614K
20260502T18Z_MSC_RDPS_AbsoluteVorticity_IsbL-0850_RLatLon0.09_PT054H.grib2 2026-05-02 20:56 785K
20260502T18Z_MSC_RDPS_AirTemp_AGL-120m_RLatLon0.09_PT054H.grib2 2026-05-02 20:56 388K
20260502T18Z_MSC_RDPS_AirTemp_AGL-2m_RLatLon0.09_PT054H.grib2 2026-05-02 20:56 623K
20260502T18Z_MSC_RDPS_AirTemp_AGL-40m_RLatLon0.09_PT054H.grib2 2026-05-02 20:56 397K
20260502T18Z_MSC_RDPS_AirTemp_AGL-80m_RLatLon0.09_PT054H.grib2 2026-05-02 20:56 391K
20260502T18Z_MSC_RDPS_AirTemp_IsbL-0001_RLatLon0.09_PT054H.grib2 2026-05-02 20:56 314K
20260502T18Z_MSC_RDPS_AirTemp_IsbL-0005_RLatLon0.09_PT054H.grib2 2026-05-02 20:56 297K
20260502T18Z_MSC_RDPS_AirTemp_IsbL-0010_RLatLon0.09_PT054H.grib2 2026-05-02 20:56 303K
20260502T18Z_MSC_RDPS_AirTemp_IsbL-0020_RLatLon0.09_PT054H.grib2 2026-05-02 20:56 321K
20260502T18Z_MSC_RDPS_AirTemp_IsbL-0030_RLatLon0.09_PT054H.grib2 2026-05-02 20:56 339K
20260502T18Z_MSC_RDPS_AirTemp_IsbL-0050_RLatLon0.09_PT054H.grib2 2026-05-02 20:56 319K
20260502T18Z_MSC_RDPS_AirTemp_IsbL-0100_RLatLon0.09_PT054H.grib2 2026-05-02 20:56 432K
20260502T18Z_MSC_RDPS_AirTemp_IsbL-0150_RLatLon0.09_PT054H.grib2 2026-05-02 20:56 421K
20260502T18Z_MSC_RDPS_AirTemp_IsbL-0175_RLatLon0.09_PT054H.grib2 2026-05-02 20:56 411K
20260502T18Z_MSC_RDPS_AirTemp_IsbL-0200_RLatLon0.09_PT054H.grib2 2026-05-02 20:56 415K
20260502T18Z_MSC_RDPS_AirTemp_IsbL-0225_RLatLon0.09_PT054H.grib2 2026-05-02 20:56 419K
20260502T18Z_MSC_RDPS_AirTemp_IsbL-0250_RLatLon0.09_PT054H.grib2 2026-05-02 20:56 424K
20260502T18Z_MSC_RDPS_AirTemp_IsbL-0275_RLatLon0.09_PT054H.grib2 2026-05-02 20:56 403K
20260502T18Z_MSC_RDPS_AirTemp_IsbL-0300_RLatLon0.09_PT054H.grib2 2026-05-02 20:56 410K
20260502T18Z_MSC_RDPS_AirTemp_IsbL-0350_RLatLon0.09_PT054H.grib2 2026-05-02 20:56 426K
20260502T18Z_MSC_RDPS_AirTemp_IsbL-0400_RLatLon0.09_PT054H.grib2 2026-05-02 20:56 431K
20260502T18Z_MSC_RDPS_AirTemp_IsbL-0450_RLatLon0.09_PT054H.grib2 2026-05-02 20:56 438K
20260502T18Z_MSC_RDPS_AirTemp_IsbL-0500_RLatLon0.09_PT054H.grib2 2026-05-02 20:56 452K
20260502T18Z_MSC_RDPS_AirTemp_IsbL-0550_RLatLon0.09_PT054H.grib2 2026-05-02 20:56 471K
20260502T18Z_MSC_RDPS_AirTemp_IsbL-0600_RLatLon0.09_PT054H.grib2 2026-05-02 20:56 451K
20260502T18Z_MSC_RDPS_AirTemp_IsbL-0650_RLatLon0.09_PT054H.grib2 2026-05-02 20:56 465K
20260502T18Z_MSC_RDPS_AirTemp_IsbL-0700_RLatLon0.09_PT054H.grib2 2026-05-02 20:56 381K
20260502T18Z_MSC_RDPS_AirTemp_IsbL-0750_RLatLon0.09_PT054H.grib2 2026-05-02 20:56 411K
20260502T18Z_MSC_RDPS_AirTemp_IsbL-0800_RLatLon0.09_PT054H.grib2 2026-05-02 20:56 454K
20260502T18Z_MSC_RDPS_AirTemp_IsbL-0850_RLatLon0.09_PT054H.grib2 2026-05-02 20:56 504K
20260502T18Z_MSC_RDPS_AirTemp_IsbL-0875_RLatLon0.09_PT054H.grib2 2026-05-02 20:56 522K
20260502T18Z_MSC_RDPS_AirTemp_IsbL-0900_RLatLon0.09_PT054H.grib2 2026-05-02 20:56 529K
20260502T18Z_MSC_RDPS_AirTemp_IsbL-0925_RLatLon0.09_PT054H.grib2 2026-05-02 20:56 524K
20260502T18Z_MSC_RDPS_AirTemp_IsbL-0950_RLatLon0.09_PT054H.grib2 2026-05-02 20:56 522K
20260502T18Z_MSC_RDPS_AirTemp_IsbL-0970_RLatLon0.09_PT054H.grib2 2026-05-02 20:56 513K
20260502T18Z_MSC_RDPS_AirTemp_IsbL-0985_RLatLon0.09_PT054H.grib2 2026-05-02 20:56 499K
20260502T18Z_MSC_RDPS_AirTemp_IsbL-1000_RLatLon0.09_PT054H.grib2 2026-05-02 20:56 488K
20260502T18Z_MSC_RDPS_AirTemp_IsbL-1015_RLatLon0.09_PT054H.grib2 2026-05-02 20:56 490K
20260502T18Z_MSC_RDPS_Albedo_Sfc_RLatLon0.09_PT054H.grib2 2026-05-02 20:56 155K
20260502T18Z_MSC_RDPS_CAPE_Sfc_RLatLon0.09_PT054H.grib2 2026-05-02 20:56 1.8M
20260502T18Z_MSC_RDPS_CIN_Sfc_RLatLon0.09_PT054H.grib2 2026-05-02 20:56 1.3M
20260502T18Z_MSC_RDPS_CloudWater_EAtm_RLatLon0.09_PT054H.grib2 2026-05-02 20:56 224K
20260502T18Z_MSC_RDPS_ConvectivePrecip-Accum_Sfc_RLatLon0.09_PT054H.grib2 2026-05-02 20:56 1.1M
20260502T18Z_MSC_RDPS_DewPointDepression_AGL-2m_RLatLon0.09_PT054H.grib2 2026-05-02 20:56 415K
20260502T18Z_MSC_RDPS_DewPointDepression_IsbL-0001_RLatLon0.09_PT054H.grib2 2026-05-02 20:56 193
20260502T18Z_MSC_RDPS_DewPointDepression_IsbL-0005_RLatLon0.09_PT054H.grib2 2026-05-02 20:56 193
20260502T18Z_MSC_RDPS_DewPointDepression_IsbL-0010_RLatLon0.09_PT054H.grib2 2026-05-02 20:56 193
20260502T18Z_MSC_RDPS_DewPointDepression_IsbL-0020_RLatLon0.09_PT054H.grib2 2026-05-02 20:56 193
20260502T18Z_MSC_RDPS_DewPointDepression_IsbL-0030_RLatLon0.09_PT054H.grib2 2026-05-02 20:56 193
20260502T18Z_MSC_RDPS_DewPointDepression_IsbL-0050_RLatLon0.09_PT054H.grib2 2026-05-02 20:56 79K
20260502T18Z_MSC_RDPS_DewPointDepression_IsbL-0100_RLatLon0.09_PT054H.grib2 2026-05-02 20:56 120K
20260502T18Z_MSC_RDPS_DewPointDepression_IsbL-0150_RLatLon0.09_PT054H.grib2 2026-05-02 20:56 149K
20260502T18Z_MSC_RDPS_DewPointDepression_IsbL-0175_RLatLon0.09_PT054H.grib2 2026-05-02 20:56 185K
20260502T18Z_MSC_RDPS_DewPointDepression_IsbL-0200_RLatLon0.09_PT054H.grib2 2026-05-02 20:56 224K
20260502T18Z_MSC_RDPS_DewPointDepression_IsbL-0225_RLatLon0.09_PT054H.grib2 2026-05-02 20:56 264K
20260502T18Z_MSC_RDPS_DewPointDepression_IsbL-0250_RLatLon0.09_PT054H.grib2 2026-05-02 20:56 301K
20260502T18Z_MSC_RDPS_DewPointDepression_IsbL-0275_RLatLon0.09_PT054H.grib2 2026-05-02 20:56 307K
20260502T18Z_MSC_RDPS_DewPointDepression_IsbL-0300_RLatLon0.09_PT054H.grib2 2026-05-02 20:56 322K
20260502T18Z_MSC_RDPS_DewPointDepression_IsbL-0350_RLatLon0.09_PT054H.grib2 2026-05-02 20:56 329K
20260502T18Z_MSC_RDPS_DewPointDepression_IsbL-0400_RLatLon0.09_PT054H.grib2 2026-05-02 20:56 344K
20260502T18Z_MSC_RDPS_DewPointDepression_IsbL-0450_RLatLon0.09_PT054H.grib2 2026-05-02 20:56 348K
20260502T18Z_MSC_RDPS_DewPointDepression_IsbL-0500_RLatLon0.09_PT054H.grib2 2026-05-02 20:56 353K
20260502T18Z_MSC_RDPS_DewPointDepression_IsbL-0550_RLatLon0.09_PT054H.grib2 2026-05-02 20:56 363K
20260502T18Z_MSC_RDPS_DewPointDepression_IsbL-0600_RLatLon0.09_PT054H.grib2 2026-05-02 20:56 373K
20260502T18Z_MSC_RDPS_DewPointDepression_IsbL-0650_RLatLon0.09_PT054H.grib2 2026-05-02 20:56 384K
20260502T18Z_MSC_RDPS_DewPointDepression_IsbL-0700_RLatLon0.09_PT054H.grib2 2026-05-02 20:56 398K
20260502T18Z_MSC_RDPS_DewPointDepression_IsbL-0750_RLatLon0.09_PT054H.grib2 2026-05-02 20:56 414K
20260502T18Z_MSC_RDPS_DewPointDepression_IsbL-0800_RLatLon0.09_PT054H.grib2 2026-05-02 20:56 449K
20260502T18Z_MSC_RDPS_DewPointDepression_IsbL-0850_RLatLon0.09_PT054H.grib2 2026-05-02 20:56 478K
20260502T18Z_MSC_RDPS_DewPointDepression_IsbL-0875_RLatLon0.09_PT054H.grib2 2026-05-02 20:56 477K
20260502T18Z_MSC_RDPS_DewPointDepression_IsbL-0900_RLatLon0.09_PT054H.grib2 2026-05-02 20:56 465K
20260502T18Z_MSC_RDPS_DewPointDepression_IsbL-0925_RLatLon0.09_PT054H.grib2 2026-05-02 20:56 451K
20260502T18Z_MSC_RDPS_DewPointDepression_IsbL-0950_RLatLon0.09_PT054H.grib2 2026-05-02 20:56 443K
20260502T18Z_MSC_RDPS_DewPointDepression_IsbL-0970_RLatLon0.09_PT054H.grib2 2026-05-02 20:56 435K
20260502T18Z_MSC_RDPS_DewPointDepression_IsbL-0985_RLatLon0.09_PT054H.grib2 2026-05-02 20:56 429K
20260502T18Z_MSC_RDPS_DewPointDepression_IsbL-1000_RLatLon0.09_PT054H.grib2 2026-05-02 20:56 425K
20260502T18Z_MSC_RDPS_DewPointDepression_IsbL-1015_RLatLon0.09_PT054H.grib2 2026-05-02 20:56 416K
20260502T18Z_MSC_RDPS_DewPoint_AGL-2m_RLatLon0.09_PT054H.grib2 2026-05-02 20:56 307K
20260502T18Z_MSC_RDPS_DownwardLongwaveRadiationFlux-Accum_Sfc_RLatLon0.09_PT054H.grib2 2026-05-02 20:56 384K
20260502T18Z_MSC_RDPS_DownwardShortwaveRadiationFlux-Accum_NTAtm_RLatLon0.09_PT054H.grib2 2026-05-02 20:56 107K
20260502T18Z_MSC_RDPS_DownwardShortwaveRadiationFlux-Accum_Sfc_RLatLon0.09_PT054H.grib2 2026-05-02 20:56 594K
20260502T18Z_MSC_RDPS_FreezingRain-Accum12h_Sfc_RLatLon0.09_PT054H.grib2 2026-05-02 20:56 59K
20260502T18Z_MSC_RDPS_FreezingRain-Accum1h_Sfc_RLatLon0.09_PT054H.grib2 2026-05-02 20:56 19K
20260502T18Z_MSC_RDPS_FreezingRain-Accum24h_Sfc_RLatLon0.09_PT054H.grib2 2026-05-02 20:56 99K
20260502T18Z_MSC_RDPS_FreezingRain-Accum3h_Sfc_RLatLon0.09_PT054H.grib2 2026-05-02 20:56 23K
20260502T18Z_MSC_RDPS_FreezingRain-Accum6h_Sfc_RLatLon0.09_PT054H.grib2 2026-05-02 20:56 26K
20260502T18Z_MSC_RDPS_FreezingRain-Accum_Sfc_RLatLon0.09_PT054H.grib2 2026-05-02 20:56 161K
20260502T18Z_MSC_RDPS_GeopotentialHeight_IsbL-0001_RLatLon0.09_PT054H.grib2 2026-05-02 20:56 317K
20260502T18Z_MSC_RDPS_GeopotentialHeight_IsbL-0005_RLatLon0.09_PT054H.grib2 2026-05-02 20:56 340K
20260502T18Z_MSC_RDPS_GeopotentialHeight_IsbL-0010_RLatLon0.09_PT054H.grib2 2026-05-02 20:56 308K
20260502T18Z_MSC_RDPS_GeopotentialHeight_IsbL-0020_RLatLon0.09_PT054H.grib2 2026-05-02 20:56 404K
20260502T18Z_MSC_RDPS_GeopotentialHeight_IsbL-0030_RLatLon0.09_PT054H.grib2 2026-05-02 20:56 407K
20260502T18Z_MSC_RDPS_GeopotentialHeight_IsbL-0050_RLatLon0.09_PT054H.grib2 2026-05-02 20:56 311K
20260502T18Z_MSC_RDPS_GeopotentialHeight_IsbL-0100_RLatLon0.09_PT054H.grib2 2026-05-02 20:56 289K
20260502T18Z_MSC_RDPS_GeopotentialHeight_IsbL-0150_RLatLon0.09_PT054H.grib2 2026-05-02 20:56 232K
20260502T18Z_MSC_RDPS_GeopotentialHeight_IsbL-0175_RLatLon0.09_PT054H.grib2 2026-05-02 20:56 235K
20260502T18Z_MSC_RDPS_GeopotentialHeight_IsbL-0200_RLatLon0.09_PT054H.grib2 2026-05-02 20:56 238K
20260502T18Z_MSC_RDPS_GeopotentialHeight_IsbL-0225_RLatLon0.09_PT054H.grib2 2026-05-02 20:56 239K
20260502T18Z_MSC_RDPS_GeopotentialHeight_IsbL-0250_RLatLon0.09_PT054H.grib2 2026-05-02 20:56 239K
20260502T18Z_MSC_RDPS_GeopotentialHeight_IsbL-0275_RLatLon0.09_PT054H.grib2 2026-05-02 20:56 238K
20260502T18Z_MSC_RDPS_GeopotentialHeight_IsbL-0300_RLatLon0.09_PT054H.grib2 2026-05-02 20:56 238K
20260502T18Z_MSC_RDPS_GeopotentialHeight_IsbL-0350_RLatLon0.09_PT054H.grib2 2026-05-02 20:56 232K
20260502T18Z_MSC_RDPS_GeopotentialHeight_IsbL-0400_RLatLon0.09_PT054H.grib2 2026-05-02 20:56 229K
20260502T18Z_MSC_RDPS_GeopotentialHeight_IsbL-0450_RLatLon0.09_PT054H.grib2 2026-05-02 20:56 299K
20260502T18Z_MSC_RDPS_GeopotentialHeight_IsbL-0500_RLatLon0.09_PT054H.grib2 2026-05-02 20:56 295K
20260502T18Z_MSC_RDPS_GeopotentialHeight_IsbL-0550_RLatLon0.09_PT054H.grib2 2026-05-02 20:56 292K
20260502T18Z_MSC_RDPS_GeopotentialHeight_IsbL-0600_RLatLon0.09_PT054H.grib2 2026-05-02 20:56 260K
20260502T18Z_MSC_RDPS_GeopotentialHeight_IsbL-0650_RLatLon0.09_PT054H.grib2 2026-05-02 20:56 258K
20260502T18Z_MSC_RDPS_GeopotentialHeight_IsbL-0700_RLatLon0.09_PT054H.grib2 2026-05-02 20:56 257K
20260502T18Z_MSC_RDPS_GeopotentialHeight_IsbL-0750_RLatLon0.09_PT054H.grib2 2026-05-02 20:56 342K
20260502T18Z_MSC_RDPS_GeopotentialHeight_IsbL-0800_RLatLon0.09_PT054H.grib2 2026-05-02 20:56 348K
20260502T18Z_MSC_RDPS_GeopotentialHeight_IsbL-0850_RLatLon0.09_PT054H.grib2 2026-05-02 20:56 358K
20260502T18Z_MSC_RDPS_GeopotentialHeight_IsbL-0875_RLatLon0.09_PT054H.grib2 2026-05-02 20:56 361K
20260502T18Z_MSC_RDPS_GeopotentialHeight_IsbL-0900_RLatLon0.09_PT054H.grib2 2026-05-02 20:56 364K
20260502T18Z_MSC_RDPS_GeopotentialHeight_IsbL-0925_RLatLon0.09_PT054H.grib2 2026-05-02 20:56 279K
20260502T18Z_MSC_RDPS_GeopotentialHeight_IsbL-0950_RLatLon0.09_PT054H.grib2 2026-05-02 20:56 282K
20260502T18Z_MSC_RDPS_GeopotentialHeight_IsbL-0970_RLatLon0.09_PT054H.grib2 2026-05-02 20:56 287K
20260502T18Z_MSC_RDPS_GeopotentialHeight_IsbL-0985_RLatLon0.09_PT054H.grib2 2026-05-02 20:56 293K
20260502T18Z_MSC_RDPS_GeopotentialHeight_IsbL-1000_RLatLon0.09_PT054H.grib2 2026-05-02 20:56 301K
20260502T18Z_MSC_RDPS_GeopotentialHeight_IsbL-1015_RLatLon0.09_PT054H.grib2 2026-05-02 20:56 312K
20260502T18Z_MSC_RDPS_Humidex_Sfc_RLatLon0.09_PT054H.grib2 2026-05-02 20:56 2.4M
20260502T18Z_MSC_RDPS_IcePellets-Accum12h_Sfc_RLatLon0.09_PT054H.grib2 2026-05-02 20:56 13K
20260502T18Z_MSC_RDPS_IcePellets-Accum1h_Sfc_RLatLon0.09_PT054H.grib2 2026-05-02 20:56 6.8K
20260502T18Z_MSC_RDPS_IcePellets-Accum24h_Sfc_RLatLon0.09_PT054H.grib2 2026-05-02 20:56 15K
20260502T18Z_MSC_RDPS_IcePellets-Accum3h_Sfc_RLatLon0.09_PT054H.grib2 2026-05-02 20:56 7.3K
20260502T18Z_MSC_RDPS_IcePellets-Accum6h_Sfc_RLatLon0.09_PT054H.grib2 2026-05-02 20:56 9.8K
20260502T18Z_MSC_RDPS_IcePellets-Accum_Sfc_RLatLon0.09_PT054H.grib2 2026-05-02 20:56 23K
20260502T18Z_MSC_RDPS_KIndex_Sfc_RLatLon0.09_PT054H.grib2 2026-05-02 20:56 2.5M
20260502T18Z_MSC_RDPS_LatentHeatNetFlux_Sfc_RLatLon0.09_PT054H.grib2 2026-05-02 20:56 369K
20260502T18Z_MSC_RDPS_LiftedIndex-MU-VT_IsbL-0500_RLatLon0.09_PT054H.grib2 2026-05-02 20:56 2.4M
20260502T18Z_MSC_RDPS_NetLongwaveRadiationFlux-Accum_Sfc_RLatLon0.09_PT054H.grib2 2026-05-02 20:56 575K
20260502T18Z_MSC_RDPS_NetShortwaveRadiationFlux-Accum_Sfc_RLatLon0.09_PT054H.grib2 2026-05-02 20:56 595K
20260502T18Z_MSC_RDPS_PlanetaryBoundaryLayerHeight_Sfc_RLatLon0.09_PT054H.grib2 2026-05-02 20:56 1.0M
20260502T18Z_MSC_RDPS_Precip-Accum12h_Sfc_RLatLon0.09_PT054H.grib2 2026-05-02 20:56 1.8M
20260502T18Z_MSC_RDPS_Precip-Accum1h_Sfc_RLatLon0.09_PT054H.grib2 2026-05-02 20:56 1.3M
20260502T18Z_MSC_RDPS_Precip-Accum24h_Sfc_RLatLon0.09_PT054H.grib2 2026-05-02 20:56 2.0M
20260502T18Z_MSC_RDPS_Precip-Accum3h_Sfc_RLatLon0.09_PT054H.grib2 2026-05-02 20:56 1.4M
20260502T18Z_MSC_RDPS_Precip-Accum6h_Sfc_RLatLon0.09_PT054H.grib2 2026-05-02 20:56 1.7M
20260502T18Z_MSC_RDPS_Precip-Accum_Sfc_RLatLon0.09_PT054H.grib2 2026-05-02 20:56 2.1M
20260502T18Z_MSC_RDPS_PrecipRate_Sfc_RLatLon0.09_PT054H.grib2 2026-05-02 20:56 187K
20260502T18Z_MSC_RDPS_PrecipType-Instant_Sfc_RLatLon0.09_PT054H.grib2 2026-05-02 20:56 561K
20260502T18Z_MSC_RDPS_Pressure-Trend3h_Sfc_RLatLon0.09_PT054H.grib2 2026-05-02 20:56 1.2M
20260502T18Z_MSC_RDPS_Pressure_MSL_RLatLon0.09_PT054H.grib2 2026-05-02 20:56 328K
20260502T18Z_MSC_RDPS_Pressure_PVU-1.5_RLatLon0.09_PT054H.grib2 2026-05-02 20:56 2.5M
20260502T18Z_MSC_RDPS_Pressure_PVU-1_RLatLon0.09_PT054H.grib2 2026-05-02 20:56 2.4M
20260502T18Z_MSC_RDPS_Pressure_PVU-2_RLatLon0.09_PT054H.grib2 2026-05-02 20:56 2.4M
20260502T18Z_MSC_RDPS_Pressure_Sfc_RLatLon0.09_PT054H.grib2 2026-05-02 20:56 498K
20260502T18Z_MSC_RDPS_RadiativeTemp_Sfc_RLatLon0.09_PT054H.grib2 2026-05-02 20:56 314K
20260502T18Z_MSC_RDPS_Rain-Accum12h_Sfc_RLatLon0.09_PT054H.grib2 2026-05-02 20:56 1.3M
20260502T18Z_MSC_RDPS_Rain-Accum1h_Sfc_RLatLon0.09_PT054H.grib2 2026-05-02 20:56 641K
20260502T18Z_MSC_RDPS_Rain-Accum24h_Sfc_RLatLon0.09_PT054H.grib2 2026-05-02 20:56 1.5M
20260502T18Z_MSC_RDPS_Rain-Accum3h_Sfc_RLatLon0.09_PT054H.grib2 2026-05-02 20:56 814K
20260502T18Z_MSC_RDPS_Rain-Accum6h_Sfc_RLatLon0.09_PT054H.grib2 2026-05-02 20:56 1.1M
20260502T18Z_MSC_RDPS_Rain-Accum_Sfc_RLatLon0.09_PT054H.grib2 2026-05-02 20:56 1.7M
20260502T18Z_MSC_RDPS_RelativeHumidity_AGL-2m_RLatLon0.09_PT054H.grib2 2026-05-02 20:56 1.0M
20260502T18Z_MSC_RDPS_RelativeHumidity_IsbL-0010_RLatLon0.09_PT054H.grib2 2026-05-02 20:56 688K
20260502T18Z_MSC_RDPS_RelativeHumidity_IsbL-0020_RLatLon0.09_PT054H.grib2 2026-05-02 20:56 739K
20260502T18Z_MSC_RDPS_RelativeHumidity_IsbL-0030_RLatLon0.09_PT054H.grib2 2026-05-02 20:56 603K
20260502T18Z_MSC_RDPS_RelativeHumidity_IsbL-0050_RLatLon0.09_PT054H.grib2 2026-05-02 20:56 362K
20260502T18Z_MSC_RDPS_RelativeHumidity_IsbL-0100_RLatLon0.09_PT054H.grib2 2026-05-02 20:56 286K
20260502T18Z_MSC_RDPS_RelativeHumidity_IsbL-0150_RLatLon0.09_PT054H.grib2 2026-05-02 20:56 419K
20260502T18Z_MSC_RDPS_RelativeHumidity_IsbL-0175_RLatLon0.09_PT054H.grib2 2026-05-02 20:56 483K
20260502T18Z_MSC_RDPS_RelativeHumidity_IsbL-0200_RLatLon0.09_PT054H.grib2 2026-05-02 20:56 561K
20260502T18Z_MSC_RDPS_RelativeHumidity_IsbL-0225_RLatLon0.09_PT054H.grib2 2026-05-02 20:56 631K
20260502T18Z_MSC_RDPS_RelativeHumidity_IsbL-0250_RLatLon0.09_PT054H.grib2 2026-05-02 20:56 691K
20260502T18Z_MSC_RDPS_RelativeHumidity_IsbL-0275_RLatLon0.09_PT054H.grib2 2026-05-02 20:56 710K
20260502T18Z_MSC_RDPS_RelativeHumidity_IsbL-0300_RLatLon0.09_PT054H.grib2 2026-05-02 20:56 744K
20260502T18Z_MSC_RDPS_RelativeHumidity_IsbL-0350_RLatLon0.09_PT054H.grib2 2026-05-02 20:56 769K
20260502T18Z_MSC_RDPS_RelativeHumidity_IsbL-0400_RLatLon0.09_PT054H.grib2 2026-05-02 20:56 790K
20260502T18Z_MSC_RDPS_RelativeHumidity_IsbL-0450_RLatLon0.09_PT054H.grib2 2026-05-02 20:56 795K
20260502T18Z_MSC_RDPS_RelativeHumidity_IsbL-0500_RLatLon0.09_PT054H.grib2 2026-05-02 20:56 798K
20260502T18Z_MSC_RDPS_RelativeHumidity_IsbL-0550_RLatLon0.09_PT054H.grib2 2026-05-02 20:56 815K
20260502T18Z_MSC_RDPS_RelativeHumidity_IsbL-0600_RLatLon0.09_PT054H.grib2 2026-05-02 20:56 849K
20260502T18Z_MSC_RDPS_RelativeHumidity_IsbL-0650_RLatLon0.09_PT054H.grib2 2026-05-02 20:56 865K
20260502T18Z_MSC_RDPS_RelativeHumidity_IsbL-0700_RLatLon0.09_PT054H.grib2 2026-05-02 20:56 893K
20260502T18Z_MSC_RDPS_RelativeHumidity_IsbL-0750_RLatLon0.09_PT054H.grib2 2026-05-02 20:56 928K
20260502T18Z_MSC_RDPS_RelativeHumidity_IsbL-0800_RLatLon0.09_PT054H.grib2 2026-05-02 20:56 1.0M
20260502T18Z_MSC_RDPS_RelativeHumidity_IsbL-0850_RLatLon0.09_PT054H.grib2 2026-05-02 20:56 1.0M
20260502T18Z_MSC_RDPS_RelativeHumidity_IsbL-0875_RLatLon0.09_PT054H.grib2 2026-05-02 20:56 1.1M
20260502T18Z_MSC_RDPS_RelativeHumidity_IsbL-0900_RLatLon0.09_PT054H.grib2 2026-05-02 20:56 1.1M
20260502T18Z_MSC_RDPS_RelativeHumidity_IsbL-0925_RLatLon0.09_PT054H.grib2 2026-05-02 20:56 1.1M
20260502T18Z_MSC_RDPS_RelativeHumidity_IsbL-0950_RLatLon0.09_PT054H.grib2 2026-05-02 20:56 1.1M
20260502T18Z_MSC_RDPS_RelativeHumidity_IsbL-0970_RLatLon0.09_PT054H.grib2 2026-05-02 20:56 1.0M
20260502T18Z_MSC_RDPS_RelativeHumidity_IsbL-0985_RLatLon0.09_PT054H.grib2 2026-05-02 20:56 1.0M
20260502T18Z_MSC_RDPS_RelativeHumidity_IsbL-1000_RLatLon0.09_PT054H.grib2 2026-05-02 20:56 1.0M
20260502T18Z_MSC_RDPS_RelativeHumidity_IsbL-1015_RLatLon0.09_PT054H.grib2 2026-05-02 20:56 1.0M
20260502T18Z_MSC_RDPS_Runoff-Accum_Sfc_RLatLon0.09_PT054H.grib2 2026-05-02 20:56 57K
20260502T18Z_MSC_RDPS_SWEATIndex_Sfc_RLatLon0.09_PT054H.grib2 2026-05-02 20:56 2.4M
20260502T18Z_MSC_RDPS_SeeingIndex_EAtm_RLatLon0.09_PT054H.grib2 2026-05-02 20:56 1.0M
20260502T18Z_MSC_RDPS_SensibleHeatNetFlux_Sfc_RLatLon0.09_PT054H.grib2 2026-05-02 20:56 325K
20260502T18Z_MSC_RDPS_ShowalterIndex_IsbL-0500_RLatLon0.09_PT054H.grib2 2026-05-02 20:56 2.6M
20260502T18Z_MSC_RDPS_SkyTransparencyIndex_EAtm_RLatLon0.09_PT054H.grib2 2026-05-02 20:56 729K
20260502T18Z_MSC_RDPS_Snow-Accum12h_Sfc_RLatLon0.09_PT054H.grib2 2026-05-02 20:56 618K
20260502T18Z_MSC_RDPS_Snow-Accum1h_Sfc_RLatLon0.09_PT054H.grib2 2026-05-02 20:56 448K
20260502T18Z_MSC_RDPS_Snow-Accum24h_Sfc_RLatLon0.09_PT054H.grib2 2026-05-02 20:56 644K
20260502T18Z_MSC_RDPS_Snow-Accum3h_Sfc_RLatLon0.09_PT054H.grib2 2026-05-02 20:56 381K
20260502T18Z_MSC_RDPS_Snow-Accum6h_Sfc_RLatLon0.09_PT054H.grib2 2026-05-02 20:56 527K
20260502T18Z_MSC_RDPS_Snow-Accum_Sfc_RLatLon0.09_PT054H.grib2 2026-05-02 20:56 793K
20260502T18Z_MSC_RDPS_SnowDensity_Sfc_RLatLon0.09_PT054H.grib2 2026-05-02 20:56 172K
20260502T18Z_MSC_RDPS_SnowDepth_Sfc_RLatLon0.09_PT054H.grib2 2026-05-02 20:56 653K
20260502T18Z_MSC_RDPS_SoilTemp_DBS-0to10cm_RLatLon0.09_PT054H.grib2 2026-05-02 20:56 247K
20260502T18Z_MSC_RDPS_SoilTemp_Sfc_RLatLon0.09_PT054H.grib2 2026-05-02 20:56 285K
20260502T18Z_MSC_RDPS_SoilVolumetricIceContent_Sfc_RLatLon0.09_PT054H.grib2 2026-05-02 20:56 154K
20260502T18Z_MSC_RDPS_SoilVolumetricWaterContent_DBS-0to10cm_RLatLon0.09_PT054H.grib2 2026-05-02 20:56 276K
20260502T18Z_MSC_RDPS_SoilVolumetricWaterContent_DBS-0to1cm_RLatLon0.09_PT054H.grib2 2026-05-02 20:56 342K
20260502T18Z_MSC_RDPS_SpecificHumidity_AGL-120m_RLatLon0.09_PT054H.grib2 2026-05-02 20:56 490K
20260502T18Z_MSC_RDPS_SpecificHumidity_AGL-2m_RLatLon0.09_PT054H.grib2 2026-05-02 20:56 663K
20260502T18Z_MSC_RDPS_SpecificHumidity_AGL-40m_RLatLon0.09_PT054H.grib2 2026-05-02 20:56 496K
20260502T18Z_MSC_RDPS_SpecificHumidity_AGL-80m_RLatLon0.09_PT054H.grib2 2026-05-02 20:56 492K
20260502T18Z_MSC_RDPS_SpecificHumidity_IsbL-0001_RLatLon0.09_PT054H.grib2 2026-05-02 20:56 364K
20260502T18Z_MSC_RDPS_SpecificHumidity_IsbL-0005_RLatLon0.09_PT054H.grib2 2026-05-02 20:56 367K
20260502T18Z_MSC_RDPS_SpecificHumidity_IsbL-0010_RLatLon0.09_PT054H.grib2 2026-05-02 20:56 400K
20260502T18Z_MSC_RDPS_SpecificHumidity_IsbL-0020_RLatLon0.09_PT054H.grib2 2026-05-02 20:56 377K
20260502T18Z_MSC_RDPS_SpecificHumidity_IsbL-0030_RLatLon0.09_PT054H.grib2 2026-05-02 20:56 373K
20260502T18Z_MSC_RDPS_SpecificHumidity_IsbL-0050_RLatLon0.09_PT054H.grib2 2026-05-02 20:56 483K
20260502T18Z_MSC_RDPS_SpecificHumidity_IsbL-0100_RLatLon0.09_PT054H.grib2 2026-05-02 20:56 429K
20260502T18Z_MSC_RDPS_SpecificHumidity_IsbL-0150_RLatLon0.09_PT054H.grib2 2026-05-02 20:56 457K
20260502T18Z_MSC_RDPS_SpecificHumidity_IsbL-0175_RLatLon0.09_PT054H.grib2 2026-05-02 20:56 447K
20260502T18Z_MSC_RDPS_SpecificHumidity_IsbL-0200_RLatLon0.09_PT054H.grib2 2026-05-02 20:56 482K
20260502T18Z_MSC_RDPS_SpecificHumidity_IsbL-0225_RLatLon0.09_PT054H.grib2 2026-05-02 20:56 470K
20260502T18Z_MSC_RDPS_SpecificHumidity_IsbL-0250_RLatLon0.09_PT054H.grib2 2026-05-02 20:56 572K
20260502T18Z_MSC_RDPS_SpecificHumidity_IsbL-0275_RLatLon0.09_PT054H.grib2 2026-05-02 20:56 483K
20260502T18Z_MSC_RDPS_SpecificHumidity_IsbL-0300_RLatLon0.09_PT054H.grib2 2026-05-02 20:56 575K
20260502T18Z_MSC_RDPS_SpecificHumidity_IsbL-0350_RLatLon0.09_PT054H.grib2 2026-05-02 20:56 544K
20260502T18Z_MSC_RDPS_SpecificHumidity_IsbL-0400_RLatLon0.09_PT054H.grib2 2026-05-02 20:56 530K
20260502T18Z_MSC_RDPS_SpecificHumidity_IsbL-0450_RLatLon0.09_PT054H.grib2 2026-05-02 20:56 580K
20260502T18Z_MSC_RDPS_SpecificHumidity_IsbL-0500_RLatLon0.09_PT054H.grib2 2026-05-02 20:56 513K
20260502T18Z_MSC_RDPS_SpecificHumidity_IsbL-0550_RLatLon0.09_PT054H.grib2 2026-05-02 20:56 584K
20260502T18Z_MSC_RDPS_SpecificHumidity_IsbL-0600_RLatLon0.09_PT054H.grib2 2026-05-02 20:56 636K
20260502T18Z_MSC_RDPS_SpecificHumidity_IsbL-0650_RLatLon0.09_PT054H.grib2 2026-05-02 20:56 557K
20260502T18Z_MSC_RDPS_SpecificHumidity_IsbL-0700_RLatLon0.09_PT054H.grib2 2026-05-02 20:56 603K
20260502T18Z_MSC_RDPS_SpecificHumidity_IsbL-0750_RLatLon0.09_PT054H.grib2 2026-05-02 20:56 657K
20260502T18Z_MSC_RDPS_SpecificHumidity_IsbL-0800_RLatLon0.09_PT054H.grib2 2026-05-02 20:56 739K
20260502T18Z_MSC_RDPS_SpecificHumidity_IsbL-0850_RLatLon0.09_PT054H.grib2 2026-05-02 20:56 814K
20260502T18Z_MSC_RDPS_SpecificHumidity_IsbL-0875_RLatLon0.09_PT054H.grib2 2026-05-02 20:56 702K
20260502T18Z_MSC_RDPS_SpecificHumidity_IsbL-0900_RLatLon0.09_PT054H.grib2 2026-05-02 20:56 712K
20260502T18Z_MSC_RDPS_SpecificHumidity_IsbL-0925_RLatLon0.09_PT054H.grib2 2026-05-02 20:56 713K
20260502T18Z_MSC_RDPS_SpecificHumidity_IsbL-0950_RLatLon0.09_PT054H.grib2 2026-05-02 20:56 711K
20260502T18Z_MSC_RDPS_SpecificHumidity_IsbL-0970_RLatLon0.09_PT054H.grib2 2026-05-02 20:56 703K
20260502T18Z_MSC_RDPS_SpecificHumidity_IsbL-0985_RLatLon0.09_PT054H.grib2 2026-05-02 20:56 694K
20260502T18Z_MSC_RDPS_SpecificHumidity_IsbL-1000_RLatLon0.09_PT054H.grib2 2026-05-02 20:56 688K
20260502T18Z_MSC_RDPS_SpecificHumidity_IsbL-1015_RLatLon0.09_PT054H.grib2 2026-05-02 20:56 679K
20260502T18Z_MSC_RDPS_SpecificHumidity_Sfc_RLatLon0.09_PT054H.grib2 2026-05-02 20:56 336K
20260502T18Z_MSC_RDPS_StormRelativeHelicity_EtaL-10000_RLatLon0.09_PT054H.grib2 2026-05-02 20:56 1.1M
20260502T18Z_MSC_RDPS_StormSeverityIndex_EtaL-10000_RLatLon0.09_PT054H.grib2 2026-05-02 20:56 1.2M
20260502T18Z_MSC_RDPS_Thickness_IsbL-0850to0700_RLatLon0.09_PT054H.grib2 2026-05-02 20:56 177K
20260502T18Z_MSC_RDPS_Thickness_IsbL-1000to0500_RLatLon0.09_PT054H.grib2 2026-05-02 20:56 200K
20260502T18Z_MSC_RDPS_Thickness_IsbL-1000to0850_RLatLon0.09_PT054H.grib2 2026-05-02 20:56 185K
20260502T18Z_MSC_RDPS_TotalCloudCover_Sfc_RLatLon0.09_PT054H.grib2 2026-05-02 20:56 666K
20260502T18Z_MSC_RDPS_TotalTotalsIndex_Sfc_RLatLon0.09_PT054H.grib2 2026-05-02 20:56 2.4M
20260502T18Z_MSC_RDPS_UVIndex-ClearSky_Sfc_RLatLon0.09_PT054H.grib2 2026-05-02 20:56 190K
20260502T18Z_MSC_RDPS_UVIndex_Sfc_RLatLon0.09_PT054H.grib2 2026-05-02 20:56 405K
20260502T18Z_MSC_RDPS_UpwardLongwaveRadiationFlux_NTAtm_RLatLon0.09_PT054H.grib2 2026-05-02 20:56 496K
20260502T18Z_MSC_RDPS_UpwardShortwaveRadiationFlux_NTAtm_RLatLon0.09_PT054H.grib2 2026-05-02 20:56 347K
20260502T18Z_MSC_RDPS_VerticalVelocity_IsbL-0250_RLatLon0.09_PT054H.grib2 2026-05-02 20:56 459K
20260502T18Z_MSC_RDPS_VerticalVelocity_IsbL-0500_RLatLon0.09_PT054H.grib2 2026-05-02 20:56 551K
20260502T18Z_MSC_RDPS_VerticalVelocity_IsbL-0700_RLatLon0.09_PT054H.grib2 2026-05-02 20:56 604K
20260502T18Z_MSC_RDPS_VerticalVelocity_IsbL-0850_RLatLon0.09_PT054H.grib2 2026-05-02 20:56 704K
20260502T18Z_MSC_RDPS_VerticalWindShear_EtaL-6500_RLatLon0.09_PT054H.grib2 2026-05-02 20:56 1.2M
20260502T18Z_MSC_RDPS_WindChill_Sfc_RLatLon0.09_PT054H.grib2 2026-05-02 20:56 1.1M
20260502T18Z_MSC_RDPS_WindDir_AGL-10m_RLatLon0.09_PT054H.grib2 2026-05-02 20:56 943K
20260502T18Z_MSC_RDPS_WindDir_AGL-120m_RLatLon0.09_PT054H.grib2 2026-05-02 20:56 591K
20260502T18Z_MSC_RDPS_WindDir_AGL-40m_RLatLon0.09_PT054H.grib2 2026-05-02 20:56 614K
20260502T18Z_MSC_RDPS_WindDir_AGL-80m_RLatLon0.09_PT054H.grib2 2026-05-02 20:56 600K
20260502T18Z_MSC_RDPS_WindDir_IsbL-0001_RLatLon0.09_PT054H.grib2 2026-05-02 20:56 283K
20260502T18Z_MSC_RDPS_WindDir_IsbL-0005_RLatLon0.09_PT054H.grib2 2026-05-02 20:56 387K
20260502T18Z_MSC_RDPS_WindDir_IsbL-0010_RLatLon0.09_PT054H.grib2 2026-05-02 20:56 397K
20260502T18Z_MSC_RDPS_WindDir_IsbL-0020_RLatLon0.09_PT054H.grib2 2026-05-02 20:56 421K
20260502T18Z_MSC_RDPS_WindDir_IsbL-0030_RLatLon0.09_PT054H.grib2 2026-05-02 20:56 428K
20260502T18Z_MSC_RDPS_WindDir_IsbL-0050_RLatLon0.09_PT054H.grib2 2026-05-02 20:56 418K
20260502T18Z_MSC_RDPS_WindDir_IsbL-0100_RLatLon0.09_PT054H.grib2 2026-05-02 20:56 409K
20260502T18Z_MSC_RDPS_WindDir_IsbL-0150_RLatLon0.09_PT054H.grib2 2026-05-02 20:56 408K
20260502T18Z_MSC_RDPS_WindDir_IsbL-0175_RLatLon0.09_PT054H.grib2 2026-05-02 20:56 435K
20260502T18Z_MSC_RDPS_WindDir_IsbL-0200_RLatLon0.09_PT054H.grib2 2026-05-02 20:56 450K
20260502T18Z_MSC_RDPS_WindDir_IsbL-0225_RLatLon0.09_PT054H.grib2 2026-05-02 20:56 452K
20260502T18Z_MSC_RDPS_WindDir_IsbL-0250_RLatLon0.09_PT054H.grib2 2026-05-02 20:56 454K
20260502T18Z_MSC_RDPS_WindDir_IsbL-0275_RLatLon0.09_PT054H.grib2 2026-05-02 20:56 472K
20260502T18Z_MSC_RDPS_WindDir_IsbL-0300_RLatLon0.09_PT054H.grib2 2026-05-02 20:56 473K
20260502T18Z_MSC_RDPS_WindDir_IsbL-0350_RLatLon0.09_PT054H.grib2 2026-05-02 20:56 495K
20260502T18Z_MSC_RDPS_WindDir_IsbL-0400_RLatLon0.09_PT054H.grib2 2026-05-02 20:56 516K
20260502T18Z_MSC_RDPS_WindDir_IsbL-0450_RLatLon0.09_PT054H.grib2 2026-05-02 20:56 533K
20260502T18Z_MSC_RDPS_WindDir_IsbL-0500_RLatLon0.09_PT054H.grib2 2026-05-02 20:56 542K
20260502T18Z_MSC_RDPS_WindDir_IsbL-0550_RLatLon0.09_PT054H.grib2 2026-05-02 20:56 557K
20260502T18Z_MSC_RDPS_WindDir_IsbL-0600_RLatLon0.09_PT054H.grib2 2026-05-02 20:56 576K
20260502T18Z_MSC_RDPS_WindDir_IsbL-0650_RLatLon0.09_PT054H.grib2 2026-05-02 20:56 615K
20260502T18Z_MSC_RDPS_WindDir_IsbL-0700_RLatLon0.09_PT054H.grib2 2026-05-02 20:56 654K
20260502T18Z_MSC_RDPS_WindDir_IsbL-0750_RLatLon0.09_PT054H.grib2 2026-05-02 20:56 706K
20260502T18Z_MSC_RDPS_WindDir_IsbL-0800_RLatLon0.09_PT054H.grib2 2026-05-02 20:56 775K
20260502T18Z_MSC_RDPS_WindDir_IsbL-0850_RLatLon0.09_PT054H.grib2 2026-05-02 20:56 858K
20260502T18Z_MSC_RDPS_WindDir_IsbL-0875_RLatLon0.09_PT054H.grib2 2026-05-02 20:56 889K
20260502T18Z_MSC_RDPS_WindDir_IsbL-0900_RLatLon0.09_PT054H.grib2 2026-05-02 20:56 902K
20260502T18Z_MSC_RDPS_WindDir_IsbL-0925_RLatLon0.09_PT054H.grib2 2026-05-02 20:56 904K
20260502T18Z_MSC_RDPS_WindDir_IsbL-0950_RLatLon0.09_PT054H.grib2 2026-05-02 20:56 895K
20260502T18Z_MSC_RDPS_WindDir_IsbL-0970_RLatLon0.09_PT054H.grib2 2026-05-02 20:56 900K
20260502T18Z_MSC_RDPS_WindDir_IsbL-0985_RLatLon0.09_PT054H.grib2 2026-05-02 20:56 909K
20260502T18Z_MSC_RDPS_WindDir_IsbL-1000_RLatLon0.09_PT054H.grib2 2026-05-02 20:56 920K
20260502T18Z_MSC_RDPS_WindDir_IsbL-1015_RLatLon0.09_PT054H.grib2 2026-05-02 20:56 934K
20260502T18Z_MSC_RDPS_WindGust-Max_AGL-10m_RLatLon0.09_PT054H.grib2 2026-05-02 20:56 956K
20260502T18Z_MSC_RDPS_WindGust-Min_AGL-10m_RLatLon0.09_PT054H.grib2 2026-05-02 20:56 1.0M
20260502T18Z_MSC_RDPS_WindGust_AGL-10m_RLatLon0.09_PT054H.grib2 2026-05-02 20:56 1.0M
20260502T18Z_MSC_RDPS_WindSpeed_AGL-10m_RLatLon0.09_PT054H.grib2 2026-05-02 20:56 843K
20260502T18Z_MSC_RDPS_WindSpeed_AGL-120m_RLatLon0.09_PT054H.grib2 2026-05-02 20:56 534K
20260502T18Z_MSC_RDPS_WindSpeed_AGL-40m_RLatLon0.09_PT054H.grib2 2026-05-02 20:56 543K
20260502T18Z_MSC_RDPS_WindSpeed_AGL-80m_RLatLon0.09_PT054H.grib2 2026-05-02 20:56 537K
20260502T18Z_MSC_RDPS_WindSpeed_IsbL-0001_RLatLon0.09_PT054H.grib2 2026-05-02 20:56 339K
20260502T18Z_MSC_RDPS_WindSpeed_IsbL-0005_RLatLon0.09_PT054H.grib2 2026-05-02 20:56 389K
20260502T18Z_MSC_RDPS_WindSpeed_IsbL-0010_RLatLon0.09_PT054H.grib2 2026-05-02 20:56 367K
20260502T18Z_MSC_RDPS_WindSpeed_IsbL-0020_RLatLon0.09_PT054H.grib2 2026-05-02 20:56 421K
20260502T18Z_MSC_RDPS_WindSpeed_IsbL-0030_RLatLon0.09_PT054H.grib2 2026-05-02 20:56 324K
20260502T18Z_MSC_RDPS_WindSpeed_IsbL-0050_RLatLon0.09_PT054H.grib2 2026-05-02 20:56 355K
20260502T18Z_MSC_RDPS_WindSpeed_IsbL-0100_RLatLon0.09_PT054H.grib2 2026-05-02 20:56 485K
20260502T18Z_MSC_RDPS_WindSpeed_IsbL-0150_RLatLon0.09_PT054H.grib2 2026-05-02 20:56 387K
20260502T18Z_MSC_RDPS_WindSpeed_IsbL-0175_RLatLon0.09_PT054H.grib2 2026-05-02 20:56 431K
20260502T18Z_MSC_RDPS_WindSpeed_IsbL-0200_RLatLon0.09_PT054H.grib2 2026-05-02 20:56 444K
20260502T18Z_MSC_RDPS_WindSpeed_IsbL-0225_RLatLon0.09_PT054H.grib2 2026-05-02 20:56 452K
20260502T18Z_MSC_RDPS_WindSpeed_IsbL-0250_RLatLon0.09_PT054H.grib2 2026-05-02 20:56 455K
20260502T18Z_MSC_RDPS_WindSpeed_IsbL-0275_RLatLon0.09_PT054H.grib2 2026-05-02 20:56 469K
20260502T18Z_MSC_RDPS_WindSpeed_IsbL-0300_RLatLon0.09_PT054H.grib2 2026-05-02 20:56 467K
20260502T18Z_MSC_RDPS_WindSpeed_IsbL-0350_RLatLon0.09_PT054H.grib2 2026-05-02 20:56 477K
20260502T18Z_MSC_RDPS_WindSpeed_IsbL-0400_RLatLon0.09_PT054H.grib2 2026-05-02 20:56 481K
20260502T18Z_MSC_RDPS_WindSpeed_IsbL-0450_RLatLon0.09_PT054H.grib2 2026-05-02 20:56 466K
20260502T18Z_MSC_RDPS_WindSpeed_IsbL-0500_RLatLon0.09_PT054H.grib2 2026-05-02 20:56 469K
20260502T18Z_MSC_RDPS_WindSpeed_IsbL-0550_RLatLon0.09_PT054H.grib2 2026-05-02 20:56 470K
20260502T18Z_MSC_RDPS_WindSpeed_IsbL-0600_RLatLon0.09_PT054H.grib2 2026-05-02 20:56 597K
20260502T18Z_MSC_RDPS_WindSpeed_IsbL-0650_RLatLon0.09_PT054H.grib2 2026-05-02 20:56 616K
20260502T18Z_MSC_RDPS_WindSpeed_IsbL-0700_RLatLon0.09_PT054H.grib2 2026-05-02 20:56 636K
20260502T18Z_MSC_RDPS_WindSpeed_IsbL-0750_RLatLon0.09_PT054H.grib2 2026-05-02 20:56 661K
20260502T18Z_MSC_RDPS_WindSpeed_IsbL-0800_RLatLon0.09_PT054H.grib2 2026-05-02 20:56 709K
20260502T18Z_MSC_RDPS_WindSpeed_IsbL-0850_RLatLon0.09_PT054H.grib2 2026-05-02 20:56 774K
20260502T18Z_MSC_RDPS_WindSpeed_IsbL-0875_RLatLon0.09_PT054H.grib2 2026-05-02 20:56 799K
20260502T18Z_MSC_RDPS_WindSpeed_IsbL-0900_RLatLon0.09_PT054H.grib2 2026-05-02 20:56 861K
20260502T18Z_MSC_RDPS_WindSpeed_IsbL-0925_RLatLon0.09_PT054H.grib2 2026-05-02 20:56 872K
20260502T18Z_MSC_RDPS_WindSpeed_IsbL-0950_RLatLon0.09_PT054H.grib2 2026-05-02 20:56 872K
20260502T18Z_MSC_RDPS_WindSpeed_IsbL-0970_RLatLon0.09_PT054H.grib2 2026-05-02 20:56 866K
20260502T18Z_MSC_RDPS_WindSpeed_IsbL-0985_RLatLon0.09_PT054H.grib2 2026-05-02 20:56 861K
20260502T18Z_MSC_RDPS_WindSpeed_IsbL-1000_RLatLon0.09_PT054H.grib2 2026-05-02 20:56 853K
20260502T18Z_MSC_RDPS_WindSpeed_IsbL-1015_RLatLon0.09_PT054H.grib2 2026-05-02 20:56 844K
20260502T18Z_MSC_RDPS_WindU_AGL-10m_RLatLon0.09_PT054H.grib2 2026-05-02 20:56 432K
20260502T18Z_MSC_RDPS_WindU_AGL-120m_RLatLon0.09_PT054H.grib2 2026-05-02 20:56 531K
20260502T18Z_MSC_RDPS_WindU_AGL-40m_RLatLon0.09_PT054H.grib2 2026-05-02 20:56 536K
20260502T18Z_MSC_RDPS_WindU_AGL-80m_RLatLon0.09_PT054H.grib2 2026-05-02 20:56 533K
20260502T18Z_MSC_RDPS_WindU_IsbL-0001_RLatLon0.09_PT054H.grib2 2026-05-02 20:56 297K
20260502T18Z_MSC_RDPS_WindU_IsbL-0005_RLatLon0.09_PT054H.grib2 2026-05-02 20:56 290K
20260502T18Z_MSC_RDPS_WindU_IsbL-0010_RLatLon0.09_PT054H.grib2 2026-05-02 20:56 299K
20260502T18Z_MSC_RDPS_WindU_IsbL-0020_RLatLon0.09_PT054H.grib2 2026-05-02 20:56 316K
20260502T18Z_MSC_RDPS_WindU_IsbL-0030_RLatLon0.09_PT054H.grib2 2026-05-02 20:56 355K
20260502T18Z_MSC_RDPS_WindU_IsbL-0050_RLatLon0.09_PT054H.grib2 2026-05-02 20:56 385K
20260502T18Z_MSC_RDPS_WindU_IsbL-0100_RLatLon0.09_PT054H.grib2 2026-05-02 20:56 342K
20260502T18Z_MSC_RDPS_WindU_IsbL-0150_RLatLon0.09_PT054H.grib2 2026-05-02 20:56 402K
20260502T18Z_MSC_RDPS_WindU_IsbL-0175_RLatLon0.09_PT054H.grib2 2026-05-02 20:56 425K
20260502T18Z_MSC_RDPS_WindU_IsbL-0200_RLatLon0.09_PT054H.grib2 2026-05-02 20:56 339K
20260502T18Z_MSC_RDPS_WindU_IsbL-0225_RLatLon0.09_PT054H.grib2 2026-05-02 20:56 345K
20260502T18Z_MSC_RDPS_WindU_IsbL-0250_RLatLon0.09_PT054H.grib2 2026-05-02 20:56 346K
20260502T18Z_MSC_RDPS_WindU_IsbL-0275_RLatLon0.09_PT054H.grib2 2026-05-02 20:56 358K
20260502T18Z_MSC_RDPS_WindU_IsbL-0300_RLatLon0.09_PT054H.grib2 2026-05-02 20:56 354K
20260502T18Z_MSC_RDPS_WindU_IsbL-0350_RLatLon0.09_PT054H.grib2 2026-05-02 20:56 363K
20260502T18Z_MSC_RDPS_WindU_IsbL-0400_RLatLon0.09_PT054H.grib2 2026-05-02 20:56 469K
20260502T18Z_MSC_RDPS_WindU_IsbL-0450_RLatLon0.09_PT054H.grib2 2026-05-02 20:56 472K
20260502T18Z_MSC_RDPS_WindU_IsbL-0500_RLatLon0.09_PT054H.grib2 2026-05-02 20:56 474K
20260502T18Z_MSC_RDPS_WindU_IsbL-0550_RLatLon0.09_PT054H.grib2 2026-05-02 20:56 476K
20260502T18Z_MSC_RDPS_WindU_IsbL-0600_RLatLon0.09_PT054H.grib2 2026-05-02 20:56 486K
20260502T18Z_MSC_RDPS_WindU_IsbL-0650_RLatLon0.09_PT054H.grib2 2026-05-02 20:56 503K
20260502T18Z_MSC_RDPS_WindU_IsbL-0700_RLatLon0.09_PT054H.grib2 2026-05-02 20:56 521K
20260502T18Z_MSC_RDPS_WindU_IsbL-0750_RLatLon0.09_PT054H.grib2 2026-05-02 20:56 543K
20260502T18Z_MSC_RDPS_WindU_IsbL-0800_RLatLon0.09_PT054H.grib2 2026-05-02 20:56 582K
20260502T18Z_MSC_RDPS_WindU_IsbL-0850_RLatLon0.09_PT054H.grib2 2026-05-02 20:56 636K
20260502T18Z_MSC_RDPS_WindU_IsbL-0875_RLatLon0.09_PT054H.grib2 2026-05-02 20:56 655K
20260502T18Z_MSC_RDPS_WindU_IsbL-0900_RLatLon0.09_PT054H.grib2 2026-05-02 20:56 659K
20260502T18Z_MSC_RDPS_WindU_IsbL-0925_RLatLon0.09_PT054H.grib2 2026-05-02 20:56 665K
20260502T18Z_MSC_RDPS_WindU_IsbL-0950_RLatLon0.09_PT054H.grib2 2026-05-02 20:56 659K
20260502T18Z_MSC_RDPS_WindU_IsbL-0970_RLatLon0.09_PT054H.grib2 2026-05-02 20:56 655K
20260502T18Z_MSC_RDPS_WindU_IsbL-0985_RLatLon0.09_PT054H.grib2 2026-05-02 20:56 791K
20260502T18Z_MSC_RDPS_WindU_IsbL-1000_RLatLon0.09_PT054H.grib2 2026-05-02 20:56 785K
20260502T18Z_MSC_RDPS_WindU_IsbL-1015_RLatLon0.09_PT054H.grib2 2026-05-02 20:56 826K
20260502T18Z_MSC_RDPS_WindV_AGL-10m_RLatLon0.09_PT054H.grib2 2026-05-02 20:56 435K
20260502T18Z_MSC_RDPS_WindV_AGL-120m_RLatLon0.09_PT054H.grib2 2026-05-02 20:56 532K
20260502T18Z_MSC_RDPS_WindV_AGL-40m_RLatLon0.09_PT054H.grib2 2026-05-02 20:56 538K
20260502T18Z_MSC_RDPS_WindV_AGL-80m_RLatLon0.09_PT054H.grib2 2026-05-02 20:56 534K
20260502T18Z_MSC_RDPS_WindV_IsbL-0001_RLatLon0.09_PT054H.grib2 2026-05-02 20:56 252K
20260502T18Z_MSC_RDPS_WindV_IsbL-0005_RLatLon0.09_PT054H.grib2 2026-05-02 20:56 293K
20260502T18Z_MSC_RDPS_WindV_IsbL-0010_RLatLon0.09_PT054H.grib2 2026-05-02 20:56 301K
20260502T18Z_MSC_RDPS_WindV_IsbL-0020_RLatLon0.09_PT054H.grib2 2026-05-02 20:56 318K
20260502T18Z_MSC_RDPS_WindV_IsbL-0030_RLatLon0.09_PT054H.grib2 2026-05-02 20:56 318K
20260502T18Z_MSC_RDPS_WindV_IsbL-0050_RLatLon0.09_PT054H.grib2 2026-05-02 20:56 349K
20260502T18Z_MSC_RDPS_WindV_IsbL-0100_RLatLon0.09_PT054H.grib2 2026-05-02 20:56 339K
20260502T18Z_MSC_RDPS_WindV_IsbL-0150_RLatLon0.09_PT054H.grib2 2026-05-02 20:56 400K
20260502T18Z_MSC_RDPS_WindV_IsbL-0175_RLatLon0.09_PT054H.grib2 2026-05-02 20:56 326K
20260502T18Z_MSC_RDPS_WindV_IsbL-0200_RLatLon0.09_PT054H.grib2 2026-05-02 20:56 363K
20260502T18Z_MSC_RDPS_WindV_IsbL-0225_RLatLon0.09_PT054H.grib2 2026-05-02 20:56 367K
20260502T18Z_MSC_RDPS_WindV_IsbL-0250_RLatLon0.09_PT054H.grib2 2026-05-02 20:56 369K
20260502T18Z_MSC_RDPS_WindV_IsbL-0275_RLatLon0.09_PT054H.grib2 2026-05-02 20:56 381K
20260502T18Z_MSC_RDPS_WindV_IsbL-0300_RLatLon0.09_PT054H.grib2 2026-05-02 20:56 377K
20260502T18Z_MSC_RDPS_WindV_IsbL-0350_RLatLon0.09_PT054H.grib2 2026-05-02 20:56 384K
20260502T18Z_MSC_RDPS_WindV_IsbL-0400_RLatLon0.09_PT054H.grib2 2026-05-02 20:56 364K
20260502T18Z_MSC_RDPS_WindV_IsbL-0450_RLatLon0.09_PT054H.grib2 2026-05-02 20:56 366K
20260502T18Z_MSC_RDPS_WindV_IsbL-0500_RLatLon0.09_PT054H.grib2 2026-05-02 20:56 368K
20260502T18Z_MSC_RDPS_WindV_IsbL-0550_RLatLon0.09_PT054H.grib2 2026-05-02 20:56 474K
20260502T18Z_MSC_RDPS_WindV_IsbL-0600_RLatLon0.09_PT054H.grib2 2026-05-02 20:56 483K
20260502T18Z_MSC_RDPS_WindV_IsbL-0650_RLatLon0.09_PT054H.grib2 2026-05-02 20:56 500K
20260502T18Z_MSC_RDPS_WindV_IsbL-0700_RLatLon0.09_PT054H.grib2 2026-05-02 20:56 517K
20260502T18Z_MSC_RDPS_WindV_IsbL-0750_RLatLon0.09_PT054H.grib2 2026-05-02 20:56 538K
20260502T18Z_MSC_RDPS_WindV_IsbL-0800_RLatLon0.09_PT054H.grib2 2026-05-02 20:56 576K
20260502T18Z_MSC_RDPS_WindV_IsbL-0850_RLatLon0.09_PT054H.grib2 2026-05-02 20:56 621K
20260502T18Z_MSC_RDPS_WindV_IsbL-0875_RLatLon0.09_PT054H.grib2 2026-05-02 20:56 643K
20260502T18Z_MSC_RDPS_WindV_IsbL-0900_RLatLon0.09_PT054H.grib2 2026-05-02 20:56 657K
20260502T18Z_MSC_RDPS_WindV_IsbL-0925_RLatLon0.09_PT054H.grib2 2026-05-02 20:56 665K
20260502T18Z_MSC_RDPS_WindV_IsbL-0950_RLatLon0.09_PT054H.grib2 2026-05-02 20:56 662K
20260502T18Z_MSC_RDPS_WindV_IsbL-0970_RLatLon0.09_PT054H.grib2 2026-05-02 20:56 659K
20260502T18Z_MSC_RDPS_WindV_IsbL-0985_RLatLon0.09_PT054H.grib2 2026-05-02 20:56 796K
20260502T18Z_MSC_RDPS_WindV_IsbL-1000_RLatLon0.09_PT054H.grib2 2026-05-02 20:56 789K
20260502T18Z_MSC_RDPS_WindV_IsbL-1015_RLatLon0.09_PT054H.grib2 2026-05-02 20:56 783K